Lufkin, TX

4:21 AM CDT on October 18, 2017 (GMT -0500)
Angelina County

Weather History for KLFK - April, 2014

Change the Weather History Date:

Monday, April 21, 2014

  Actual Average Record
Temperature  
Mean Temperature 72 °F 68 °F  
Max Temperature 83 °F 79 °F 91 °F (2011)
Min Temperature 60 °F 56 °F 37 °F (1918)
Degree Days  
Heating Degree Days 0 2  
Month to date heating degree days 56 61  
Since 1 July heating degree days 2109 1905  
Cooling Degree Days 7 4  
Month to date cooling degree days 77 70  
Year to date cooling degree days 112 130  
Growing Degree Days 22 (Base 50)    
Moisture  
Dew Point 61 °F    
Average Humidity 71    
Maximum Humidity 87    
Minimum Humidity 55    
Precipitation  
Precipitation 0.00 in 0.11 in 1.40 in (1921)
Month to date precipitation 2.67 2.08  
Year to date precipitation 8.04 13.91  
Snow  
Snow 0.00 in - - ()
Month to date snowfall 0.0  
Since 1 July snowfall 3.2  
Snow Depth 0.00 in    
Sea Level Pressure  
Sea Level Pressure 30.04 in    
Wind  
Wind Speed 6 mph (South)    
Max Wind Speed 14 mph    
Max Gust Speed 18 mph    
Visibility 10 miles    
Events      
T = Trace of Precipitation, MM = Missing Value Source: NWS Daily Summary

Daily Weather History Graph

Daily Weather History Graph

Search for Another Location

Airport or City:

Trip Planner

Search our weather history database for the weather conditions in past years. The results will help you decide how hot, cold, wet, or windy it might be!

Date:

Astronomy

Apr. 21, 2014 Rise Set
Actual Time 6:44 AM CDT 7:51 PM CDT
Civil Twilight 6:19 AM CDT 8:16 PM CDT
Nautical Twilight 5:49 AM CDT 8:46 PM CDT
Astronomical Twilight 5:18 AM CDT 9:17 PM CDT
Moon 1:16 AM CDT (4/21) 12:16 PM CDT (4/21)
Length of Visible Light 13h 57m
Length of Day
13h 07m
Waning Gibbous, 57% of the Moon is Illuminated
Apr 21
Waning Gibbous
Apr 22
Last Quarter
Apr 29
New
May 6
First Quarter
May 14
Full

Hourly Weather History & Observations

Time (CDT) Temp. Heat Index Dew Point Humidity Pressure Visibility Wind Dir Wind Speed Gust Speed Precip Events Conditions
12:53 AM 66.9 °F - 52.0 °F 59% 30.07 in 10.0 mi SSE 4.6 mph - N/A   Overcast
1:53 AM 66.0 °F - 52.0 °F 60% 30.07 in 10.0 mi South 3.5 mph - N/A   Mostly Cloudy
2:53 AM 64.0 °F - 53.1 °F 67% 30.06 in 10.0 mi SE 3.5 mph - N/A   Mostly Cloudy
3:53 AM 64.0 °F - 54.0 °F 70% 30.06 in 10.0 mi SE 3.5 mph - N/A   Overcast
4:53 AM 63.0 °F - 55.9 °F 78% 30.06 in 10.0 mi SSE 3.5 mph - N/A   Partly Cloudy
5:53 AM 61.0 °F - 55.9 °F 83% 30.05 in 10.0 mi SSE 4.6 mph - N/A   Partly Cloudy
6:53 AM 63.0 °F - 57.9 °F 84% 30.06 in 8.0 mi South 5.8 mph - N/A   Partly Cloudy
7:40 AM 64.0 °F - 59.0 °F 84% 30.08 in 8.0 mi Calm Calm - N/A   Scattered Clouds
7:53 AM 64.0 °F - 60.1 °F 87% 30.07 in 9.0 mi Variable 3.5 mph - N/A   Mostly Cloudy
8:01 AM 64.9 °F - 60.1 °F 84% 30.08 in 9.0 mi South 4.6 mph - N/A   Mostly Cloudy
8:22 AM 66.0 °F - 61.0 °F 84% 30.09 in 9.0 mi South 4.6 mph - N/A   Overcast
8:53 AM 68.0 °F - 62.1 °F 81% 30.08 in 10.0 mi SSW 4.6 mph - N/A   Overcast
9:18 AM 69.1 °F - 62.1 °F 78% 30.08 in 10.0 mi SSW 8.1 mph - N/A   Mostly Cloudy
9:37 AM 71.1 °F - 62.1 °F 73% 30.08 in 10.0 mi SSW 6.9 mph - N/A   Mostly Cloudy
9:53 AM 72.0 °F - 62.1 °F 71% 30.07 in 10.0 mi SW 10.4 mph - N/A   Overcast
10:53 AM 75.0 °F - 62.1 °F 64% 30.08 in 10.0 mi SSW 9.2 mph - N/A   Mostly Cloudy
11:00 AM 73.9 °F - 61.0 °F 64% 30.09 in 10.0 mi SW 9.2 mph - N/A   Overcast
11:53 AM 75.0 °F - 62.1 °F 64% 30.08 in 10.0 mi WSW 6.9 mph - N/A   Overcast
12:53 PM 78.1 °F - 64.0 °F 62% 30.05 in 10.0 mi South 5.8 mph - N/A   Overcast
1:53 PM 78.1 °F - 63.0 °F 60% 30.03 in 10.0 mi SSW 10.4 mph - N/A   Overcast
2:29 PM 79.0 °F - 63.0 °F 58% 30.04 in 10.0 mi SW 10.4 mph - N/A   Overcast
2:38 PM 78.1 °F - 63.0 °F 60% 30.04 in 10.0 mi SW 8.1 mph - N/A   Overcast
2:53 PM 78.1 °F - 63.0 °F 60% 30.03 in 9.0 mi SW 5.8 mph - N/A   Overcast
3:53 PM 82.0 °F 83.4 °F 64.0 °F 54% 29.99 in 9.0 mi South 8.1 mph - N/A   Mostly Cloudy
4:53 PM 82.0 °F 83.4 °F 64.0 °F 54% 29.95 in 10.0 mi SW 10.4 mph - N/A   Partly Cloudy
5:53 PM 81.0 °F 82.5 °F 64.0 °F 56% 29.94 in 10.0 mi SSW 6.9 mph - N/A   Mostly Cloudy
6:53 PM 79.0 °F - 64.0 °F 60% 29.94 in 9.0 mi South 6.9 mph - N/A   Overcast
7:53 PM 75.9 °F - 64.0 °F 67% 29.93 in 9.0 mi South 4.6 mph - N/A   Clear
8:53 PM 73.9 °F - 64.0 °F 71% 29.97 in 10.0 mi SSE 3.5 mph - N/A   Mostly Cloudy
9:53 PM 73.0 °F - 64.0 °F 73% 29.98 in 10.0 mi South 5.8 mph - N/A   Partly Cloudy
10:53 PM 72.0 °F - 64.0 °F 76% 29.98 in 10.0 mi South 6.9 mph - N/A   Clear
11:53 PM 71.1 °F - 64.0 °F 78% 29.98 in 10.0 mi South 5.8 mph - N/A   Clear